Location: Heiligenberg
(48.5381°N, 7.3897°E)
Time: 22:58:54
(UTC+00:00)

Cosmos 2369 Rocket - Pass Details

Date: 26 May 2022
Orbit: 830 x 851 km, 71.0° (Epoch: 02 July)

Event Time Altitude Azimuth Distance (km) Brightness Sun altitude
Rises 01:50:04 0° 332° (NNW) 3,387 5.7 -13.4°
Reaches altitude 10° 01:52:32 10° 334° (NNW) 2,448 5.0 -13.2°
Maximum altitude 01:58:09 76° 61° (ENE) 859 2.4 -12.7°
Drops below altitude 10° 02:03:44 10° 147° (SSE) 2,432 4.4 -12.1°
Sets 02:06:09 0° 149° (SSE) 3,364 5.1 -11.9°
